Regional Weather Roundup
Issued by NWS

Home | Current Version | Previous Version | Text Only | Print | Product List | Glossary Off
Versions: 1 2 3 4 5 6 7 8 9 10 11 12 13 14 15 16 17 18 19 20 21 22 23 24 25 26 27 28 29 30 31 32 33 34 35 36 37 38 39 40 41 42 43 44 45 46 47 48 49 50

651
ASUS43 KDMX 271508
RWRIA

WEATHER ROUNDUP FOR IOWA
NATIONAL WEATHER SERVICE DES MOINES IA
1000 AM CDT TUE SEP 27 2016

NOTE: "FAIR" INDICATES FEW OR NO CLOUDS BELOW 12,000 FEET WITH NO
SIGNIFICANT WEATHER AND/OR OBSTRUCTIONS TO VISIBILITY.

* - THESE STATIONS ARE NOT NWS STATIONS...THUS NOT UNDER NWS
QUALITY CONTROL.  THEY ALSO DO NOT REPORT WEATHER SUCH
AS PRECIPITATION OR FOG.

IAZ001>003-012>014-020>022-031>034-043>046-271600-
   NORTHWEST IOWA

CITY           SKY/WX    TMP DP  RH WIND       PRES   REMARKS
CARROLL *      SUNNY     61  41  48 W12       29.99S
CHEROKEE *     SUNNY     59  43  54 NW8       29.99F
DENISON *      SUNNY     59  46  63 SW6       29.99F
LE MARS *      SUNNY     59  41  51 NW10      30.01F
ORANGE CITY *  SUNNY     57  45  62 NW10      29.99F
SHELDON *      SUNNY     57  41  54 NW7       29.98S
SIOUX CITY     SUNNY     59  46  62 NW6       30.02F
SPENCER        SUNNY     58  40  51 W14       29.97S
STORM LAKE *   SUNNY     57  41  54 W10       29.99S
$$

IAZ055>058-069>071-079>083-090>094-271600-
   SOUTHWEST IOWA

CITY           SKY/WX    TMP DP  RH WIND       PRES   REMARKS
ATLANTIC *     SUNNY     63  45  51 NW9       30.01F
AUDUBON *      SUNNY     61  48  63 SW3       30.01F
CLARINDA *       N/A     63  52  67 MISG      30.04S
COUNCIL BLFS * SUNNY     61  48  63 VRB3      30.03S
CRESTON *      SUNNY     61  46  59 W7        30.02S
HARLAN  *      SUNNY     64  43  45 W6        30.05S
LAMONI         SUNNY     65  46  50 NW6       30.01S
RED OAK *      SUNNY     63  54  72 CALM      30.02F
SHENANDOAH *   SUNNY     61  54  77 CALM      30.03F
$$

IAZ047>049-059>061-072>074-084-271600-
   CENTRAL IOWA

CITY           SKY/WX    TMP DP  RH WIND       PRES   REMARKS
AMES           SUNNY     61  43  51 W12       29.96F
ANKENY *         N/A    N/A N/A N/A MISG        N/A
BOONE *        SUNNY     59  41  51 W9        29.96F
CHARITON *       N/A     64  43  45 NW10      29.98F
DES MOINES     MOSUNNY   62  46  55 W7        29.98F
GRINNELL*      SUNNY     60  43  52 W10       29.96F
KNOXVILLE *    SUNNY     63  41  45 NW12      29.97S
MARSHALLTOWN   SUNNY     59  42  53 NW13      29.94F
NEWTON *       SUNNY     61  41  48 W9        29.96F
PELLA *        SUNNY     61  45  55 W9        29.99S
PERRY *          N/A     64  38  39 W10       29.99S
$$

IAZ004>006-015-016-023>025-035-036-271600-
   NORTH CENTRAL IOWA

CITY           SKY/WX    TMP DP  RH WIND       PRES   REMARKS
ALGONA *       SUNNY     57  37  47 NW13      29.95F
CLARION *      SUNNY     57  39  51 NW9G15    29.95S
ESTHERVILLE    SUNNY     55  38  52 NW13      29.95S
FORT DODGE *   SUNNY     61  45  55 W8        29.97S
MASON CITY     SUNNY     56  40  55 W14       29.93F
FOREST CITY *    N/A     55  37  50 NW9G18    29.93S
WEBSTER CITY * SUNNY     59  41  51 W8G14     29.94S
IOWA FALLS *     N/A     58  40  50 W13       29.95S
$$

IAZ007>011-017>019-026>030-037>042-050>054-066-271600-
   NORTHEAST IOWA

CITY           SKY/WX    TMP DP  RH WIND       PRES   REMARKS
CEDAR RAPIDS   SUNNY     58  43  57 W14       29.92F
CHARLES CITY * SUNNY     55  37  50 W12       29.91S
CLINTON *      SUNNY     59  40  49 W14G20    29.90S
DECORAH *      SUNNY     55  41  58 W8G17     29.84F
DUBUQUE        SUNNY     56  41  57 W14       29.88F
MONTICELLO *   SUNNY     59  39  47 W14       29.89F
OELWEIN *      SUNNY     57  39  51 W13       29.91S
WATERLOO       SUNNY     58  40  51 W10       29.91F
$$

IAZ064-065-067-068-078-271600-
   EAST CENTRAL IOWA

CITY           SKY/WX    TMP DP  RH WIND       PRES   REMARKS
DAVENPORT      SUNNY     61  39  44 W16G22    29.91F
IOWA CITY      SUNNY     60  42  51 NW10      29.95S
MT. PLEASANT * SUNNY     65  42  43 W10G16    29.95F
MUSCATINE *    SUNNY     64  39  39 W13       29.94S
QUAD CITIES    SUNNY     63  42  46 W14       29.91F
$$

IAZ062-063-075>077-085>089-095>099-271600-
   SOUTHEAST IOWA

CITY           SKY/WX    TMP DP  RH WIND       PRES   REMARKS
BURLINGTON     SUNNY     52  42  69 W8        29.95S
FAIRFIELD *    SUNNY     63  39  42 NW12      29.96S
FORT MADISON * SUNNY     64  41  42 W8        29.97S
KEOKUK *       SUNNY     63  45  51 W9        29.97S
OSKALOOSA *      N/A     62  42  48 W13       29.97F
CENTERVILLE *    N/A     66  41  39 CALM      30.01R
OTTUMWA        SUNNY     62  43  49 W10       29.97S
WASHINGTON *     N/A    N/A N/A N/A MISG        N/A
$$

ABBREVIATIONS USED IN REMARKS
   TC - TEMPERATURES IN CELSIUS
  WCI - WIND CHILL INDEX
   HX - HEAT INDEX
  VSB - VISIBILITY
$$





USA.gov is the U.S. government's official web portal to all federal, state and local government web resources and services.